Location: Houston
(29.7630°N, 95.3630°W)
Time: 04:27:23
(UTC-05:00)

ISS - All Passes

Search period start: 15 September 2014 00:00
Search period end: 25 September 2014 00:00
Orbit: 414 x 417 km, 51.6° (Epoch: 14 September)

Date Brightness Start Highest point End Pass type
(mag) Time Alt. Az. Time Alt. Az. Time Alt. Az.
15 Sep - 04:36:29 10° WSW 04:39:44 51° NW 04:42:59 10° NNE visible
15 Sep - 11:11:43 10° NNE 11:12:42 11° NNE 11:13:42 10° NE daylight
15 Sep - 12:46:25 10° NW 12:49:43 65° SW 12:52:59 10° SE daylight
16 Sep - 03:47:40 10° SW 03:50:58 73° SE 03:54:16 10° NE visible
16 Sep - 05:27:29 10° NW 05:28:00 10° NNW 05:28:31 10° NNW visible
16 Sep - 11:57:38 10° NW 12:00:55 57° NE 12:04:10 10° SE daylight
17 Sep - 02:59:08 10° SSW 03:02:08 32° SE 03:05:09 10° ENE night (unlit)
17 Sep - 04:36:37 10° W 04:38:53 17° NW 04:41:10 10° N visible
17 Sep - 11:08:59 10° NNW 11:11:55 28° NE 11:14:51 10° ESE daylight
17 Sep - 12:46:12 10° W 12:48:26 17° SW 12:50:39 10° S daylight
18 Sep - 02:11:08 10° SSE 02:13:16 16° SE 02:15:23 10° E night (unlit)
18 Sep - 03:46:47 10° WSW 03:49:45 30° NW 03:52:43 10° NNE night (unlit)
18 Sep - 10:20:33 10° N 10:22:44 16° NE 10:24:56 10° ENE daylight
18 Sep - 11:56:27 10° WNW 11:59:30 34° SW 12:02:32 10° SSE daylight
19 Sep - 02:57:17 10° SW 03:00:33 61° NW 03:03:51 10° NE night (unlit)
19 Sep - 11:07:04 10° NW 11:10:24 78° SW 11:13:42 10° SE daylight
20 Sep - 02:08:04 10° SSW 02:11:20 59° SE 02:14:36 10° NE night (unlit)
20 Sep - 03:47:03 10° NW 03:48:16 12° NW 03:49:30 10° NNW night (unlit)
20 Sep - 10:17:53 10° NNW 10:21:06 47° NE 10:24:19 10° ESE daylight
21 Sep - 01:19:13 10° S 01:22:03 27° SE 01:24:55 10° ENE night (unlit)
21 Sep - 02:56:13 10° W 02:58:42 19° NW 03:01:12 10° N night (unlit)
21 Sep - 09:28:50 10° NNW 09:31:37 24° NE 09:34:24 10° E daylight
21 Sep - 11:05:38 10° WNW 11:08:10 20° SW 11:10:40 10° S daylight
22 Sep - 00:31:04 10° SSE 00:32:43 13° SE 00:34:22 10° E night (unlit)
22 Sep - 02:06:02 10° WSW 02:09:06 35° NW 02:12:11 10° NNE night (unlit)
22 Sep - 08:40:03 10° N 08:41:56 14° NE 08:43:49 10° ENE daylight
22 Sep - 10:15:35 10° WNW 10:18:45 42° SW 10:21:54 10° SSE daylight
23 Sep - 01:16:10 10° SW 01:19:28 77° NW 01:22:47 10° NE night (unlit)
23 Sep - 09:25:49 10° NW 09:29:09 83° NE 09:32:27 10° SE daylight
24 Sep - 00:26:37 10° SSW 00:29:47 46° SE 00:32:58 10° ENE night (unlit)
24 Sep - 02:04:52 10° WNW 02:06:36 13° NW 02:08:20 10° N night (unlit)
24 Sep - 08:36:14 10° NNW 08:39:22 38° NE 08:42:29 10° ESE daylight
24 Sep - 10:14:15 10° W 10:15:42 12° SW 10:17:10 10° SSW daylight
24 Sep - 23:37:29 10° S 23:40:04 21° SE 23:42:38 10° ENE night (unlit)
